Location: Unspecified
(0.0000°N, 0.0000°E)
Time: 15:18:49
(UTC+00:00)

STARLINK-1316 - Pass Details

Date: 16 February 2026
Orbit: 474 x 477 km, 53.2° (Epoch: 6 March)

Event Time Altitude Azimuth Distance (km) Brightness Sun altitude
Rises 04:20:40 0° 178° (S) 2,517 7.2 -27.6°
Reaches altitude 10° 04:24:35 10° 137° (SE) 1,635 6.7 -26.7°
Maximum altitude 04:25:20 11° 125° (SE) 1,605 6.8 -26.5°
Drops below altitude 10° 04:26:04 10° 113° (ESE) 1,634 7.0 -26.3°
Sets 04:29:57 0° 72° (ENE) 2,506 7.9 -25.4°
